Location: *
(44.1392°N, 4.8079°E)
Time: 07:31:49
(UTC+00:00)

Cosmos 1763 Rocket - Pass Details

Date: 21 June 2021
Orbit: 732 x 781 km, 74.0° (Epoch: 01 August)

Event Time Altitude Azimuth Distance (km) Brightness Sun altitude
Exits shadow 00:35:46 44° 229° (SW) 1,017 3.7 -21.3°
Maximum altitude 00:37:16 66° 292° (WNW) 807 3.6 -21.3°
Drops below altitude 10° 00:42:23 10° 16° (NNE) 2,271 7.1 -21.0°
Sets 00:44:47 0° 19° (NNE) 3,207 8.3 -20.9°
